Jackson, MN

3:29 AM CST on February 11, 2016 (GMT -0600)
Jackson Municipal

Weather History for KMJQ - January, 2014

Change the Weather History Date:

Saturday, January 11, 2014

  Actual Average Record
Temperature  
Mean Temperature 26 °F -  
Max Temperature 32 °F 22 °F 48 °F (2002)
Min Temperature 21 °F 6 °F -11 °F (1997)
Degree Days  
Heating Degree Days 38    
Moisture  
Dew Point 23 °F    
Average Humidity 84    
Maximum Humidity 87    
Minimum Humidity 80    
Precipitation  
Precipitation 0.00 in - - ()
Sea Level Pressure  
Sea Level Pressure 29.63 in    
Wind  
Wind Speed 11 mph (West)    
Max Wind Speed 21 mph    
Max Gust Speed 26 mph    
Visibility 9 miles    
Events      
Averages and records for this station are not official NWS values.
T = Trace of Precipitation, MM = Missing Value Source: NWS Daily Summary

Daily Weather History Graph

Daily Weather History Graph

Search for Another Location

Airport or City:

Trip Planner

Search our weather history database for the weather conditions in past years. The results will help you decide how hot, cold, wet, or windy it might be!

Date:

Astronomy

Jan. 11, 2014 Rise Set
Actual Time 7:52 AM CST 5:04 PM CST
Civil Twilight 7:19 AM CST 5:36 PM CST
Nautical Twilight 6:44 AM CST 6:11 PM CST
Astronomical Twilight 6:09 AM CST 6:46 PM CST
Moon 1:50 PM CST 3:56 AM CST
Length of Visible Light 10h 16m
Length of Day
9h 12m
Waxing Gibbous, 83% of the Moon is Illuminated
Jan 11
Waxing Gibbous
Jan 15
Full
Jan 23
Last Quarter
Jan 30
New
Feb 6
First Quarter

Hourly Weather History & Observations

Time (CST) Temp. Windchill Dew Point Humidity Pressure Visibility Wind Dir Wind Speed Gust Speed Precip Events Conditions
12:13 AM 26.6 °F 21.2 °F 23.0 °F 86% 29.51 in 5.0 mi West 4.6 mph - N/A   Clear
12:33 AM 24.8 °F 17.9 °F 21.2 °F 86% 29.50 in 7.0 mi West 5.8 mph - N/A   Clear
12:53 AM 24.8 °F 15.3 °F 21.2 °F 86% 29.51 in 10.0 mi West 9.2 mph - N/A   Clear
1:13 AM 24.8 °F 14.6 °F 21.2 °F 86% 29.51 in 10.0 mi West 10.4 mph - N/A   Clear
1:33 AM 24.8 °F 14.6 °F 19.4 °F 80% 29.51 in 10.0 mi West 10.4 mph - N/A   Clear
1:53 AM 24.8 °F 15.3 °F 19.4 °F 80% 29.50 in 10.0 mi West 9.2 mph - N/A   Clear
2:13 AM 24.8 °F 16.1 °F 19.4 °F 80% 29.51 in 10.0 mi West 8.1 mph - N/A   Clear
2:33 AM 24.8 °F 16.1 °F 19.4 °F 80% 29.51 in 10.0 mi West 8.1 mph - N/A   Clear
2:52 AM 23.0 °F 13.9 °F 19.4 °F 86% 29.52 in 10.0 mi West 8.1 mph - N/A   Clear
3:13 AM 23.0 °F 14.7 °F 19.4 °F 86% 29.52 in 10.0 mi West 6.9 mph - N/A   Clear
3:33 AM 23.0 °F 17.0 °F 17.6 °F 80% 29.52 in 10.0 mi West 4.6 mph - N/A   Clear
3:52 AM 23.0 °F 15.8 °F 19.4 °F 86% 29.52 in 10.0 mi West 5.8 mph - N/A   Clear
4:13 AM 21.2 °F 13.6 °F 17.6 °F 86% 29.52 in 10.0 mi West 5.8 mph - N/A   Clear
4:33 AM 21.2 °F 12.6 °F 17.6 °F 86% 29.53 in 10.0 mi West 6.9 mph - N/A   Clear
4:52 AM 21.2 °F 11.7 °F 17.6 °F 86% 29.53 in 10.0 mi West 8.1 mph - N/A   Clear
5:13 AM 21.2 °F 9.5 °F 17.6 °F 86% 29.54 in 10.0 mi WNW 11.5 mph - N/A   Clear
5:33 AM 23.0 °F 11.1 °F 17.6 °F 80% 29.54 in 10.0 mi WNW 12.7 mph - N/A   Clear
5:52 AM 23.0 °F 11.7 °F 17.6 °F 80% 29.54 in 10.0 mi WNW 11.5 mph - N/A   Clear
6:13 AM 23.0 °F 10.6 °F 17.6 °F 80% 29.55 in 10.0 mi WNW 13.8 mph - N/A   Clear
6:33 AM 23.0 °F 10.6 °F 17.6 °F 80% 29.55 in 10.0 mi WNW 13.8 mph - N/A   Clear
6:53 AM 23.0 °F 9.6 °F 17.6 °F 80% 29.56 in 10.0 mi NW 16.1 mph - N/A   Clear
7:12 AM 23.0 °F 11.1 °F 19.4 °F 86% 29.58 in 10.0 mi WNW 12.7 mph - N/A   Mostly Cloudy
7:33 AM 24.8 °F 12.4 °F 19.4 °F 80% 29.59 in 10.0 mi NW 15.0 mph 19.6 mph N/A   Overcast
7:53 AM 24.8 °F 12.4 °F 21.2 °F 86% 29.60 in 10.0 mi WNW 15.0 mph - N/A   Overcast
8:12 AM 24.8 °F 11.9 °F 19.4 °F 80% 29.61 in 10.0 mi NW 16.1 mph - N/A   Overcast
8:33 AM 24.8 °F 14.0 °F 21.2 °F 86% 29.61 in 5.0 mi NW 11.5 mph 19.6 mph N/A   Overcast
8:53 AM 26.6 °F 16.2 °F 23.0 °F 86% 29.62 in 5.0 mi NW 11.5 mph 19.6 mph N/A   Overcast
9:12 AM 26.6 °F 16.2 °F 23.0 °F 86% 29.63 in 5.0 mi NW 11.5 mph - N/A   Overcast
9:33 AM 26.6 °F 13.8 °F 23.0 °F 86% 29.64 in 7.0 mi NW 17.3 mph - N/A   Overcast
9:53 AM 28.4 °F 17.0 °F 23.0 °F 80% 29.66 in 7.0 mi NW 15.0 mph 19.6 mph N/A   Overcast
10:12 AM 28.4 °F 17.0 °F 23.0 °F 80% 29.67 in 7.0 mi NW 15.0 mph 20.7 mph N/A   Overcast
10:33 AM 28.4 °F 16.2 °F 24.8 °F 86% 29.67 in 10.0 mi NW 17.3 mph 25.3 mph N/A   Overcast
10:53 AM 28.4 °F 16.2 °F 24.8 °F 86% 29.67 in 10.0 mi NW 17.3 mph 23.0 mph N/A   Overcast
11:13 AM 30.2 °F 20.2 °F 26.6 °F 86% 29.67 in 10.0 mi WNW 12.7 mph - N/A   Overcast
11:32 AM 30.2 °F 19.3 °F 26.6 °F 86% 29.67 in 10.0 mi WNW 15.0 mph 19.6 mph N/A   Overcast
11:53 AM 30.2 °F 18.9 °F 26.6 °F 86% 29.68 in 10.0 mi NW 16.1 mph 26.5 mph N/A   Overcast
12:13 PM 30.2 °F 17.4 °F 26.6 °F 86% 29.67 in 10.0 mi WNW 20.7 mph 24.2 mph N/A   Overcast
12:32 PM 32.0 °F 20.5 °F 26.6 °F 80% 29.67 in 10.0 mi WNW 18.4 mph 24.2 mph N/A   Overcast
12:53 PM 32.0 °F 19.8 °F 26.6 °F 80% 29.67 in 10.0 mi WNW 20.7 mph - N/A   Overcast
1:13 PM 32.0 °F 20.1 °F 26.6 °F 80% 29.67 in 10.0 mi WNW 19.6 mph 25.3 mph N/A   Overcast
1:32 PM 32.0 °F 20.5 °F 26.6 °F 80% 29.67 in 10.0 mi WNW 18.4 mph 24.2 mph N/A   Mostly Cloudy
1:53 PM 32.0 °F 20.8 °F 26.6 °F 80% 29.67 in 10.0 mi WNW 17.3 mph 21.9 mph N/A   Mostly Cloudy
2:13 PM 32.0 °F 21.6 °F 28.4 °F 87% 29.67 in 10.0 mi West 15.0 mph 19.6 mph N/A   Mostly Cloudy
2:32 PM 32.0 °F 22.1 °F 26.6 °F 80% 29.67 in 10.0 mi West 13.8 mph - N/A   Scattered Clouds
2:53 PM 32.0 °F 21.2 °F 28.4 °F 87% 29.68 in 10.0 mi West 16.1 mph 19.6 mph N/A   Mostly Cloudy
3:12 PM 32.0 °F 21.6 °F 28.4 °F 87% 29.67 in 10.0 mi WNW 15.0 mph 21.9 mph N/A   Mostly Cloudy
3:33 PM 32.0 °F 22.5 °F 26.6 °F 80% 29.69 in 10.0 mi WSW 12.7 mph - N/A   Scattered Clouds
3:53 PM 30.2 °F 19.8 °F 26.6 °F 86% 29.70 in 10.0 mi WSW 13.8 mph - N/A   Scattered Clouds
4:12 PM 30.2 °F 21.3 °F 26.6 °F 86% 29.71 in 10.0 mi WSW 10.4 mph - N/A   Scattered Clouds
4:33 PM 30.2 °F 21.3 °F 26.6 °F 86% 29.71 in 10.0 mi WSW 10.4 mph - N/A   Scattered Clouds
4:53 PM 28.4 °F 18.0 °F 24.8 °F 86% 29.72 in 10.0 mi WSW 12.7 mph - N/A   Scattered Clouds
5:12 PM 28.4 °F 18.0 °F 24.8 °F 86% 29.72 in 7.0 mi WSW 12.7 mph - N/A   Mostly Cloudy
5:33 PM 28.4 °F 18.0 °F 23.0 °F 80% 29.72 in 10.0 mi SW 12.7 mph 18.4 mph N/A   Scattered Clouds
5:53 PM 26.6 °F 15.7 °F 23.0 °F 86% 29.73 in 7.0 mi WSW 12.7 mph - N/A   Mostly Cloudy
6:12 PM 26.6 °F 16.2 °F 23.0 °F 86% 29.72 in 7.0 mi SW 11.5 mph - N/A   Scattered Clouds
6:33 PM 26.6 °F 15.7 °F 23.0 °F 86% 29.72 in 10.0 mi SW 12.7 mph - N/A   Clear
6:52 PM 26.6 °F 16.2 °F 23.0 °F 86% 29.72 in 10.0 mi SSW 11.5 mph - N/A   Clear
7:13 PM 24.8 °F 14.0 °F 21.2 °F 86% 29.71 in 10.0 mi SSW 11.5 mph - N/A   Clear
7:33 PM 24.8 °F 14.6 °F 21.2 °F 86% 29.70 in 10.0 mi SSW 10.4 mph 16.1 mph N/A   Clear
7:52 PM 26.6 °F 15.7 °F 23.0 °F 86% 29.70 in 10.0 mi SW 12.7 mph - N/A   Clear
8:13 PM 26.6 °F 15.7 °F 23.0 °F 86% 29.70 in 10.0 mi SW 12.7 mph - N/A   Clear
8:33 PM 26.6 °F 16.8 °F 23.0 °F 86% 29.69 in 10.0 mi SSW 10.4 mph - N/A   Clear
8:52 PM 28.4 °F 19.1 °F 23.0 °F 80% 29.68 in 10.0 mi SSW 10.4 mph - N/A   Clear
9:11 PM 26.6 °F 16.2 °F 23.0 °F 86% 29.69 in 10.0 mi SSW 11.5 mph - N/A   Clear
9:32 PM 26.6 °F 16.2 °F 23.0 °F 86% 29.68 in 10.0 mi SSW 11.5 mph - N/A   Clear
9:53 PM 26.6 °F 16.2 °F 23.0 °F 86% 29.67 in 10.0 mi SSW 11.5 mph - N/A   Clear
10:13 PM 24.8 °F 14.6 °F 21.2 °F 86% 29.67 in 10.0 mi South 10.4 mph - N/A   Clear
10:33 PM 26.6 °F 15.7 °F 21.2 °F 80% 29.66 in 10.0 mi SSW 12.7 mph - N/A   Clear
10:53 PM 26.6 °F 15.2 °F 23.0 °F 86% 29.66 in 10.0 mi South 13.8 mph - N/A   Clear
11:12 PM 28.4 °F 18.0 °F 23.0 °F 80% 29.63 in 10.0 mi South 12.7 mph - N/A   Clear
11:33 PM 28.4 °F 17.5 °F 23.0 °F 80% 29.63 in 10.0 mi South 13.8 mph - N/A   Clear
11:53 PM 26.6 °F 16.2 °F 23.0 °F 86% 29.61 in 10.0 mi South 11.5 mph - N/A   Clear